{"data":{"norad_id":48065,"intl_designator":"2021-025Z","name":"ONEWEB-0166","alt_names":[],"object_type":"PAYLOAD","status":"ACTIVE","operator":null,"country":"UK","launch_date":"2021-03-25","launch_site_code":"VOSTO","launch_vehicle":null,"mission":null,"orbit_class":"UNKNOWN","rcs_meters":null,"size_class":null,"mass_kg":null,"dimensions":null,"purposes":["comms"],"wikipedia_slug":null,"has_3d_model":false,"image_url":null,"decayed_at":null,"tle_current":{"epoch":"2026-09-20T01:32:28.214880Z","epoch_age_seconds":55947,"freshness":"FRESH","line1":"1 48065U 21025Z   26263.06421545 -.00000276  00000+0 -79166-3 0  9997","line2":"2 48065  87.8923 301.3303 0001898  96.6851 263.4494 13.13469853266106","mean_motion":13.13469853,"eccentricity":0.0001898,"inclination_deg":87.8923,"raan_deg":301.3303,"arg_perigee_deg":96.6851,"mean_anomaly_deg":263.4494,"bstar":-0.00079166,"rev_number":26610,"period_min":109.63327378325,"perigee_km":1208.3257820623,"apogee_km":1211.2061500282,"semimajor_km":7587.9029660453,"source":"CELESTRAK","updated_at":"2026-09-20T09:00:44.588863Z"}}}